Location: Invercargill
(46.4000°S, 168.3500°E)
Time: 23:04:31
(UTC+13:00)

Timation 1 Rocket - Pass Details

Date: 24 January 2019
Orbit: 901 x 907 km, 70.0° (Epoch: 15 October)

Event Time Altitude Azimuth Distance (km) Brightness Sun altitude
Rises 23:19:14 0° 210° (SSW) 3,572 9.2 -15.2°
Reaches altitude 10° 23:21:46 10° 211° (SSW) 2,624 8.1 -15.4°
Maximum altitude 23:27:49 73° 294° (WNW) 958 4.5 -16.1°
Enters shadow 23:31:41 23° 15° (NNE) 1,830 5.4 -16.5°
